TimePST,TemperatureF,Dew PointF,Humidity,Sea Level PressureIn,VisibilityMPH,Wind Direction,Wind SpeedMPH,Gust SpeedMPH,PrecipitationIn,Events,Conditions,WindDirDegrees,DateUTC
12:21 AM,33.8,30.2,87,30.21,10.0,East,3.5,-,N/A,,Overcast,90,2012-12-10 08:21:00
12:56 AM,33.1,30.9,92,30.26,10.0,SE,4.6,-,N/A,,Overcast,140,2012-12-10 08:56:00
1:56 AM,34.0,30.9,89,30.25,10.0,Calm,Calm,-,N/A,,Overcast,0,2012-12-10 09:56:00
2:09 AM,33.8,30.2,87,30.21,10.0,Calm,Calm,-,N/A,,Overcast,0,2012-12-10 10:09:00
2:48 AM,33.8,30.2,87,30.21,10.0,ENE,4.6,-,N/A,,Overcast,60,2012-12-10 10:48:00
2:56 AM,33.1,30.9,92,30.25,10.0,East,4.6,-,N/A,,Overcast,90,2012-12-10 10:56:00
3:25 AM,33.8,30.2,87,30.22,10.0,Calm,Calm,-,N/A,,Overcast,0,2012-12-10 11:25:00
3:56 AM,33.1,30.9,92,30.27,10.0,Calm,Calm,-,N/A,,Overcast,0,2012-12-10 11:56:00
4:45 AM,33.8,30.2,87,30.25,10.0,Calm,Calm,-,N/A,,Overcast,0,2012-12-10 12:45:00
4:56 AM,32.0,30.0,92,30.29,10.0,Calm,Calm,-,N/A,,Overcast,0,2012-12-10 12:56:00
5:08 AM,33.8,30.2,87,30.25,10.0,Calm,Calm,-,N/A,,Overcast,0,2012-12-10 13:08:00
5:43 AM,33.8,30.2,87,30.26,10.0,Calm,Calm,-,N/A,,Overcast,0,2012-12-10 13:43:00
5:56 AM,33.1,30.9,92,30.30,10.0,Calm,Calm,-,N/A,,Overcast,0,2012-12-10 13:56:00
6:08 AM,33.8,30.2,87,30.26,10.0,Calm,Calm,-,N/A,,Overcast,0,2012-12-10 14:08:00
6:56 AM,33.1,30.0,89,30.30,10.0,Calm,Calm,-,N/A,,Overcast,0,2012-12-10 14:56:00
7:03 AM,33.8,30.2,87,30.26,10.0,Calm,Calm,-,N/A,,Overcast,0,2012-12-10 15:03:00
7:30 AM,33.8,30.2,87,30.26,10.0,Calm,Calm,-,N/A,,Overcast,0,2012-12-10 15:30:00
7:56 AM,34.0,30.9,89,30.31,10.0,Calm,Calm,-,N/A,,Overcast,0,2012-12-10 15:56:00
8:03 AM,33.8,30.2,87,30.26,10.0,Calm,Calm,-,N/A,,Overcast,0,2012-12-10 16:03:00
8:56 AM,35.1,30.9,85,30.31,10.0,SSE,3.5,-,N/A,,Overcast,160,2012-12-10 16:56:00
9:46 AM,35.6,33.8,93,30.26,10.0,Variable,3.5,-,N/A,,Overcast,0,2012-12-10 17:46:00
9:56 AM,36.0,33.1,89,30.30,10.0,Calm,Calm,-,N/A,,Overcast,0,2012-12-10 17:56:00
10:03 AM,37.4,33.8,87,30.26,10.0,Calm,Calm,-,N/A,,Overcast,0,2012-12-10 18:03:00
10:14 AM,37.4,33.8,87,30.27,10.0,Calm,Calm,-,N/A,,Overcast,0,2012-12-10 18:14:00
10:56 AM,37.0,32.0,82,30.30,10.0,Calm,Calm,-,N/A,,Overcast,0,2012-12-10 18:56:00
11:56 AM,37.9,33.1,83,30.27,10.0,Calm,Calm,-,N/A,,Mostly Cloudy,0,2012-12-10 19:56:00
12:56 PM,37.9,33.1,83,30.25,10.0,Calm,Calm,-,N/A,,Mostly Cloudy,0,2012-12-10 20:56:00
1:56 PM,37.9,33.1,83,30.24,8.0,Calm,Calm,-,N/A,,Mostly Cloudy,0,2012-12-10 21:56:00
2:03 PM,37.4,33.8,87,30.20,8.0,NNW,3.5,-,N/A,,Mostly Cloudy,340,2012-12-10 22:03:00
2:26 PM,37.4,33.8,87,30.20,10.0,ENE,5.8,-,N/A,,Mostly Cloudy,70,2012-12-10 22:26:00
2:56 PM,37.0,33.1,86,30.24,10.0,East,3.5,-,N/A,,Mostly Cloudy,90,2012-12-10 22:56:00
3:35 PM,35.6,33.8,93,30.20,10.0,Calm,Calm,-,N/A,,Scattered Clouds,0,2012-12-10 23:35:00
3:56 PM,36.0,33.1,89,30.23,10.0,Calm,Calm,-,N/A,,Scattered Clouds,0,2012-12-10 23:56:00
4:56 PM,34.0,32.0,92,30.22,10.0,Calm,Calm,-,N/A,,Mostly Cloudy,0,2012-12-11 00:56:00
5:06 PM,35.6,33.8,93,30.18,10.0,Calm,Calm,-,N/A,,Overcast,0,2012-12-11 01:06:00
5:13 PM,35.6,33.8,93,30.18,9.0,Calm,Calm,-,N/A,,Overcast,0,2012-12-11 01:13:00
5:56 PM,35.1,33.1,92,30.21,7.0,Calm,Calm,-,N/A,,Overcast,0,2012-12-11 01:56:00
6:03 PM,35.6,33.8,93,30.16,6.0,Calm,Calm,-,N/A,,Overcast,0,2012-12-11 02:03:00
6:20 PM,33.8,32.0,93,30.16,6.0,Calm,Calm,-,N/A,,Scattered Clouds,0,2012-12-11 02:20:00
6:56 PM,36.0,34.0,93,30.20,6.0,Calm,Calm,-,N/A,,Scattered Clouds,0,2012-12-11 02:56:00
7:03 PM,35.6,33.8,93,30.15,5.0,Calm,Calm,-,N/A,,Overcast,0,2012-12-11 03:03:00
7:17 PM,35.6,33.8,93,30.15,5.0,Calm,Calm,-,N/A,,Scattered Clouds,0,2012-12-11 03:17:00
7:56 PM,36.0,34.0,93,30.19,5.0,Calm,Calm,-,N/A,,Scattered Clouds,0,2012-12-11 03:56:00
8:03 PM,35.6,33.8,93,30.15,5.0,Calm,Calm,-,N/A,,Overcast,0,2012-12-11 04:03:00
8:56 PM,36.0,34.0,93,30.17,4.0,Calm,Calm,-,N/A,,Overcast,0,2012-12-11 04:56:00
9:56 PM,36.0,34.0,93,30.14,2.5,Calm,Calm,-,N/A,,Overcast,0,2012-12-11 05:56:00
10:08 PM,35.6,33.8,93,30.11,1.2,Calm,Calm,-,N/A,,Overcast,0,2012-12-11 06:08:00
10:20 PM,35.6,33.8,93,30.10,1.8,Calm,Calm,-,N/A,,Overcast,0,2012-12-11 06:20:00
10:34 PM,35.6,33.8,93,30.10,1.2,Calm,Calm,-,N/A,,Overcast,0,2012-12-11 06:34:00
10:48 PM,35.6,33.8,93,30.09,1.0,Calm,Calm,-,N/A,,Mist,0,2012-12-11 06:48:00
10:56 PM,35.1,34.0,96,30.13,1.8,Calm,Calm,-,N/A,,Overcast,0,2012-12-11 06:56:00
11:08 PM,35.6,33.8,93,30.09,1.2,Calm,Calm,-,N/A,,Overcast,0,2012-12-11 07:08:00
11:22 PM,35.6,33.8,93,30.08,0.8,Calm,Calm,-,N/A,,Mist,0,2012-12-11 07:22:00
11:56 PM,35.1,34.0,96,30.11,0.5,Calm,Calm,-,N/A,Fog,Fog,0,2012-12-11 07:56:00